Weather History for Douglas, WY

Change the Weather History Date:

Wednesday, June 19, 2013

  Actual Average Record
Temperature  
Mean Temperature 75 °F 65 °F  
Max Temperature 95 °F 81 °F 95 °F (2013)
Min Temperature 55 °F 49 °F 41 °F (2014)
Degree Days  
Heating Degree Days 0 3  
Month to date heating degree days 54 90  
Since 1 June heating degree days 54 90  
Since 1 July heating degree days 7132 7421  
Cooling Degree Days 10 3  
Month to date cooling degree days 39 31  
Year to date cooling degree days 55 37  
Since 1 June cooling degree days 39 31  
Growing Degree Days 24 (Base 50)    
Moisture  
Dew Point 36 °F    
Average Humidity 41    
Maximum Humidity 77    
Minimum Humidity 5    
Precipitation  
Precipitation 0.00 in 0.05 in 0.50 in (2011)
Month to date precipitation 0.37 1.26  
Year to date precipitation 4.99 6.90  
Sea Level Pressure  
Sea Level Pressure 29.60 in    
Wind  
Wind Speed 16 mph (SSE)    
Max Wind Speed 26 mph    
Max Gust Speed 33 mph    
Visibility 10 miles    
Events      
T = Trace of Precipitation, MM = Missing Value Source: NWS Daily Summary

Daily Weather History Graph

Daily Weather History Graph

Search for Another Location

Airport:

Trip Planner

Search our weather history database for the weather conditions in past years. The results will help you decide how hot, cold, wet, or windy it might be!

Date:

Astronomy

Jun. 19, 2013 Rise Set
Actual Time 5:22 AM MDT 8:43 PM MDT
Civil Twilight 4:47 AM MDT 9:18 PM MDT
Nautical Twilight 4:01 AM MDT 10:04 PM MDT
Astronomical Twilight 3:05 AM MDT 11:00 PM MDT
Moon 4:35 PM MDT (6/19) 2:13 AM MDT (6/19)
Length of Visible Light 16h 30m
Length of Day
15h 20m
Waxing Gibbous, 81% of the Moon is Illuminated
Jun 19
Waxing Gibbous
Jun 23
Full
Jun 29
Last Quarter
Jul 8
New
Jul 15
First Quarter

Hourly Weather History & Observations

Time (MDT) Temp. Dew Point Humidity Pressure Visibility Wind Dir Wind Speed Gust Speed Precip Events Conditions
12:53 AM 60.1 °F 44.1 °F 55% 29.80 in 10.0 mi SSE 17.3 mph 24.2 mph N/A   Clear
1:53 AM 59.0 °F 45.0 °F 60% 29.79 in 10.0 mi SE 16.1 mph - N/A   Clear
2:53 AM 59.0 °F 46.0 °F 62% 29.76 in 10.0 mi SE 16.1 mph - N/A   Clear
3:53 AM 57.9 °F 46.9 °F 67% 29.74 in 10.0 mi SE 17.3 mph - N/A   Clear
4:53 AM 55.0 °F 46.9 °F 74% 29.71 in 10.0 mi ESE 19.6 mph 26.5 mph N/A   Clear
5:53 AM 55.0 °F 48.0 °F 77% 29.70 in 10.0 mi SE 19.6 mph 26.5 mph N/A   Clear
6:53 AM 57.9 °F 48.0 °F 70% 29.68 in 10.0 mi SE 18.4 mph - N/A   Clear
7:53 AM 62.1 °F 48.9 °F 62% 29.66 in 10.0 mi SE 16.1 mph 23.0 mph N/A   Clear
8:53 AM 68.0 °F 50.0 °F 52% 29.64 in 10.0 mi SSE 17.3 mph 25.3 mph N/A   Clear
9:53 AM 73.0 °F 51.1 °F 46% 29.61 in 10.0 mi SE 17.3 mph - N/A   Clear
10:53 AM 79.0 °F 52.0 °F 39% 29.59 in 10.0 mi SE 18.4 mph 23.0 mph N/A   Clear
11:53 AM 84.9 °F 51.1 °F 31% 29.56 in 10.0 mi SE 17.3 mph 27.6 mph N/A   Clear
12:53 PM 89.1 °F 46.9 °F 23% 29.52 in 10.0 mi SE 18.4 mph 25.3 mph N/A   Clear
1:53 PM 93.0 °F 39.0 °F 15% 29.50 in 10.0 mi SE 18.4 mph 24.2 mph N/A   Clear
2:53 PM 91.9 °F 41.0 °F 17% 29.49 in 10.0 mi SE 21.9 mph 28.8 mph N/A   Partly Cloudy
3:53 PM 93.9 °F 39.9 °F 15% 29.47 in 10.0 mi SSE 20.7 mph 28.8 mph N/A   Clear
4:53 PM 91.9 °F 15.1 °F 6% 29.46 in 10.0 mi WSW 17.3 mph 27.6 mph N/A   Clear
5:02 PM 91.4 °F 12.2 °F 5% 29.65 in 10.0 mi SW 15.0 mph 26.5 mph N/A   Clear
5:53 PM 93.9 °F 10.9 °F 5% 29.44 in 10.0 mi WSW 19.6 mph 26.5 mph N/A   Clear
6:53 PM 89.1 °F 17.1 °F 7% 29.46 in 10.0 mi WSW 13.8 mph 23.0 mph N/A   Clear
7:53 PM 84.0 °F 23.0 °F 11% 29.48 in 10.0 mi WSW 6.9 mph - N/A   Clear
8:53 PM 82.0 °F 17.1 °F 9% 29.48 in 10.0 mi WSW 11.5 mph - N/A   Clear
9:53 PM 73.9 °F 19.0 °F 13% 29.52 in 10.0 mi WSW 9.2 mph - N/A   Clear
10:53 PM 73.9 °F 24.1 °F 16% 29.57 in 10.0 mi NNW 6.9 mph - N/A   Clear
11:53 PM 69.1 °F 23.0 °F 18% 29.60 in 10.0 mi WNW 11.5 mph - N/A   Clear